Flag for Norway Weather past 2 weeks in Longyearbyen, Svalbard, Norway

Now
23 °F

Passing clouds.


Feels Like: 10 °F
Forecast: 4 / 19 °F
Wind: 15 mph from South

Location: Svalbard Lufthavn

Current Time: Jan 25, 2015 at 9:40:14 PM

Latest Report: Jan 25, 2015 at 8:50 PM


Visibility: N/A

Pressure: 29.74 "Hg

Humidity: 68%

Dew point: 14 °F

Location of LongyearbyenLocation

Historic Weather in Longyearbyen — Graph

°F

Longyearbyen temperature yesterday

Maximum temperature yesterday: 34 °F (at 10:50 AM)
Minimum temperature yesterday: 28 °F (at 12:50 AM)
Average temperature yesterday: 30 °F

Past Weeks' High & Low Weather Summary

 TemperatureHumidityPressure
High37 °F (Jan 22, 1:50 AM)93% (Jan 18, 4:50 PM)30.12 "Hg (Jan 18, 4:50 PM)
Low0 °F (Jan 17, 5:00 PM)40% (Jan 15, 6:50 PM)29.53 "Hg (Jan 24, 2:50 AM)
Average20 °F70%29.75 "Hg
* Reported Jan 10 7:50 PM — Jan 25 7:50 PM, Longyearbyen, Weather by CustomWeather, © 2014

Note: Actual official high and low records may vary slightly from our data, if they occured in-between our weather recording intervals... More about our weather records

Advertising

Longyearbyen weather history for previous 24 hours

 ConditionsComfort  
Time TempWeatherWind HumidityBarometerVisibility
7:50 PM
Jan 25
23 °FPassing clouds.13 mph68%29.74 "HgN/A
6:50 PM25 °FPassing clouds.7 mph63%29.77 "HgN/A
5:50 PM25 °FPartly sunny.13 mph69%29.77 "HgN/A
4:50 PM25 °FPartly sunny.10 mph74%29.77 "HgN/A
3:50 PM27 °FPartly sunny.10 mph64%29.77 "HgN/A
2:50 PM23 °FScattered clouds.21 mph80%29.77 "HgN/A
1:50 PM25 °FScattered clouds.14 mph74%29.77 "HgN/A
12:50 PM23 °FPartly sunny.16 mph80%29.77 "HgN/A
11:50 AM25 °FPartly sunny.7 mph74%29.77 "HgN/A
10:50 AM25 °FPartly sunny.10 mph74%29.77 "HgN/A
9:50 AM25 °FPartly sunny.10 mph74%29.74 "HgN/A
8:50 AM25 °FScattered clouds.12 mph74%29.74 "HgN/A
7:50 AM27 °FScattered clouds.7 mph69%29.71 "HgN/A
6:50 AM27 °FSunny.12 mph69%29.71 "Hg10 mi
5:50 AM28 °FPassing clouds.9 mph69%29.71 "HgN/A
4:50 AM27 °FClear.16 mph74%29.68 "Hg10 mi
3:50 AM27 °FClear.15 mph80%29.68 "Hg10 mi
2:50 AM28 °FClear.13 mph74%29.68 "Hg10 mi
1:50 AM28 °FClear.17 mph69%29.68 "Hg10 mi
12:50 AM28 °FSunny.18 mph74%29.68 "Hg10 mi
11:50 PM
Jan 24
28 °FClear.15 mph74%29.65 "Hg10 mi
10:50 PM28 °FPassing clouds.17 mph74%29.65 "HgN/A
9:50 PM30 °FPassing clouds.17 mph75%29.65 "HgN/A
Weather by CustomWeather, © 2014

See weather overviewHow to use our weather pages